Location: Boiro
(42.6475°N, 8.8834°W)
Time: 19:27:57
(UTC+01:00)

A-11 Canister half - Pass Details

Date: 30 November 2021
Orbit: 1516 x 1684 km, 47.2° (Epoch: 26 January)

Event Time Altitude Azimuth Distance (km) Brightness Sun altitude
Rises 09:40:36 0° 234° (SW) 4,768 11.4 7.6°
Reaches altitude 10° 09:43:38 10° 232° (SW) 3,807 11.0 8.0°
Maximum altitude 09:53:21 76° 149° (SSE) 1,685 9.6 9.4°
Drops below altitude 10° 10:03:25 10° 66° (ENE) 3,934 11.5 10.8°
Sets 10:06:37 0° 66° (ENE) 4,934 12.0 11.2°
